Regional Weather Roundup
Issued by NWS Albany, NY

Home | Current Version | Previous Version | Text Only | Print | Product List | Glossary On
Versions: 1 2 3 4 5 6 7 8 9 10 11 12 13 14 15 16 17 18 19 20 21 22 23 24 25 26 27 28 29 30 31 32 33 34 35 36 37 38 39 40 41 42 43 44 45 46 47 48 49 50
087
ASUS41 KALY 310010
RWRALY

NEW YORK STATE HOURLY WEATHER ROUNDUP
NATIONAL WEATHER SERVICE ALBANY NY
800 PM EDT MON MAY 30 2016

NOTE: "FAIR" INDICATES FEW OR NO CLOUDS BELOW 12,000 FEET WITH NO
SIGNIFICANT WEATHER AND/OR NO OBSTRUCTIONS TO VISIBILITY.

NYZ032-033-038>043-046>054-057>066-NYZ062>081-082-084-310100-
EAST


CITY           SKY/WX    TMP DP  RH WIND       PRES   REMARKS
ALBANY         LGT RAIN  71  67  87 S8        29.89R
GLENS FALLS    MOCLDY    82  53  36 W5        29.85R
POUGHKEEPSIE   CLOUDY    79  68  69 VRB6      29.89R
MONTGOMERY     CLOUDY    76  64  66 SW10      29.92R
WHITE PLAINS   CLOUDY    71  68  90 S8        29.94R
ISLIP          CLOUDY    67  65  93 S14G23    29.95S FOG
NEW YORK CITY  CLOUDY    74  72  93 S10       29.93R
CENTRAL PARK   CLOUDY    76  68  76 MISG      29.97R
$$

NYZ005>009-017-018-044>046-055-056-310100-
CENTRAL


CITY           SKY/WX    TMP DP  RH WIND       PRES   REMARKS
FULTON         PTCLDY    75  57  53 W6        29.91R
SYRACUSE       MOCLDY    74  56  53 W9        29.91R
ROME           PTCLDY    74  58  57 W9        29.91R
ELMIRA         CLEAR     77  54  44 NW8       29.93R
BINGHAMTON     CLOUDY    72  62  71 S5        29.96R
MONTICELLO     CLOUDY    66  61  82 W7        30.00R
$$

NYZ026>034-041>043-087-310100-
NORTH


CITY           SKY/WX    TMP DP  RH WIND       PRES   REMARKS
WATERTOWN      CLEAR     70  56  61 SW9       29.87R
FORT DRUM      NOT AVBL
MASSENA        CLEAR     77  58  51 SW17G25   29.80S
SARANAC LAKE   CLEAR     71  52  50 W9        29.87S
PLATTSBURGH    CLEAR     80  56  43 W5        29.79R
$$

NYZ001>004-010>016-019>021-085-310100-
WEST


CITY           SKY/WX    TMP DP  RH WIND       PRES   REMARKS
NIAGARA FALLS  PTCLDY    76  48  37 NW10      29.94R
BUFFALO        PTCLDY    71  58  63 SW9       29.95R
DUNKIRK        CLEAR     72  57  59 SW8       29.97R
JAMESTOWN      CLEAR     72  54  53 W3        30.01S
WELLSVILLE     PTCLDY    71  53  52 NW9       30.03R
ROCHESTER      PTCLDY    77  58  51 W9        29.93R
PENN YAN       CLEAR     76  56  49 W5        29.95R
$$

             KEY
       WCI = WIND CHILL INDEX
       VSB = VISIBILITY
       HX  = HEAT INDEX
$$




USA.gov is the U.S. government's official web portal to all federal, state and local government web resources and services.